OneWeb SL0268

operational
NORAD ID: 48986 Int'l Des: 2021-060 Owner: ONEWEBN Country: UK Constellation: oneweb
LEOCIRCULARPOLARONEWEB_TYPE

About OneWeb SL0268

Description loading...

Live Position

Loading 3D Globe...

Upcoming Passes

Altitude History

Altitude vs Time

uPlot chart will show altitude changes over time

Two-Line Element Set

1 48986U 21060V 25304.28223858 -.00000021 00000-0 -88667-4 0 9990
2 48986 87.8993 274.3744 0001830 87.9452 272.1888 13.16596636209732
Epoch: Oct 31, 2025 • Age: 13 hours

Current Status

Altitude 1206.6 km
Velocity 7.26 km/s
Sub-Earth Point 59.15°N, 60.2°W
Launch Date Jul 1, 2021
Age 4.3 years
Type internet

Technical Details

Classification Payload
Mass 148.00 kg
Dry Mass 140.00 kg
Total Mass 148.00 kg
Length 1.30 m
Diameter 1.00 m
Span 5.00 m
Shape Trapezoid+2 pan
Manufacturer ONEWUS
Bus Type ARROW
Phase Status In Orbit
Owner/State ONEWEBN/UK

Large Constellations

Loading constellations...